Regional Weather Roundup
Issued by NWS

Home | Current Version | Previous Version | Text Only | Print | Product List | Glossary On
Versions: 1 2 3 4 5 6 7 8 9 10 11 12 13 14 15 16 17 18 19 20 21 22 23 24 25 26 27 28 29 30 31 32 33 34 35 36 37 38 39 40 41 42 43 44 45 46 47 48 49 50
288
ASUS43 KFSD 030610
RWRSD

WEATHER ROUNDUP FOR SOUTH DAKOTA
NATIONAL WEATHER SERVICE SIOUX FALLS SD
100 AM CDT TUE MAY 03 2016

NOTE: "FAIR" INDICATES FEW OR NO CLOUDS BELOW 12,000 FEET WITH NO
SIGNIFICANT WEATHER AND/OR OBSTRUCTIONS TO VISIBILITY.


SDZ001>005-009-010-012>017-030700-
NORTHWEST AND NORTH CENTRAL SOUTH DAKOTA

CITY           SKY/WX    TMP DP  RH WIND       PRES   REMARKS
BUFFALO          N/A     50  32  50 W6        30.00S
FAITH            N/A     44  40  85 SW7       30.04S
MOBRIDGE       CLEAR     41  39  93 CALM      29.99S
$$

SDZ012>016-024>037-041>051-057-063-072>074-030700-
SOUTHWEST AND SOUTH CENTRAL SOUTH DAKOTA

CITY           SKY/WX    TMP DP  RH WIND       PRES   REMARKS
RAPID CTY ARPT CLEAR     43  36  76 N9        30.06R
PIERRE         CLEAR     44  40  85 W6        30.03R
CUSTER         MOCLDY    44  28  53 CALM      30.11R
ELLSWORTH AFB  CLEAR     46  37  72 NW9       30.06R
PHILIP         CLEAR     38  37  97 NW5       30.05S
PINE RIDGE     CLEAR     38  36  92 CALM      30.05S
WINNER         MOCLDY    47  41  80 CALM      30.05S
$$

SDZ004>011-016>023-039-040-030700-
NORTHEAST SOUTH DAKOTA

CITY           SKY/WX    TMP DP  RH WIND       PRES   REMARKS
ABERDEEN       CLEAR     39  34  82 S3        30.02R
WATERTOWN      CLEAR     43  37  79 SW6       30.01S
BROOKINGS      CLEAR     45  39  79 W3        30.02S
SISSETON         N/A     45  36  70 NW6       29.99S
$$

SDZ017-020-022-023-036>040-048>070-030700-
SOUTHEAST SOUTH DAKOTA

CITY           SKY/WX    TMP DP  RH WIND       PRES   REMARKS
SIOUX FALLS    CLEAR     41  37  86 CALM      30.04S
HURON          CLEAR     45  41  86 SW5       30.02S
CHAMBERLAIN    CLEAR     45  44  97 W6        30.04S
MITCHELL       CLEAR     48  45  89 SW3       30.04S
YANKTON        MOCLDY    45  39  81 N6        30.04S
$$

ABBREVIATIONS USED IN REMARKS
   TC - TEMPERATURE IN CELSIUS
  WCI - WIND CHILL INDEX
   HX - HEAT INDEX
  VSB - VISIBILITY





USA.gov is the U.S. government's official web portal to all federal, state and local government web resources and services.